This is the latest recevied weather packets stored in our database for station/object W5CDN. If no packets are shown the sender has not sent any weather packets the latest 10 day(s).
| Time | Temp. | Humidity | Pressure | Rain* | Wind** | Luminosity | Snow |
|---|---|---|---|---|---|---|---|
| 1787499990 | 31.11° C | 61% | 1015.6 hPa | 0 mm | - | - | - |
| 1787499690 | 31.11° C | 61% | 1015.6 hPa | 0 mm | - | - | - |
| 1787499390 | 30.56° C | 64% | 1015.5 hPa | 0 mm | - | - | - |
| 1787499090 | 30° C | 66% | 1015.7 hPa | 0 mm | - | - | - |
| 1787498790 | 29.44° C | 68% | 1015.8 hPa | 0 mm | - | - | - |
| 1787498490 | 30° C | 68% | 1015.9 hPa | 0 mm | - | - | - |
| 1787498190 | 29.44° C | 68% | 1015.7 hPa | 0 mm | - | - | - |
| 1787497890 | 29.44° C | 71% | 1015.9 hPa | 0 mm | - | - | - |
| 1787497590 | 29.44° C | 70% | 1015.8 hPa | 0 mm | - | - | - |
| 1787497290 | 30° C | 69% | 1015.9 hPa | 0 mm | - | - | - |
| 1787496990 | 29.44° C | 70% | 1015.8 hPa | 0 mm | - | - | - |
| 1787496690 | 28.89° C | 71% | 1015.9 hPa | 0 mm | - | - | - |
| 1787496390 | 27.78° C | 72% | 1016.2 hPa | 0 mm | - | - | - |
| 1787496090 | 27.78° C | 73% | 1016.2 hPa | 0 mm | - | - | - |
| 1787495790 | 27.78° C | 74% | 1016.1 hPa | 0 mm | - | - | - |
| 1787495490 | 27.78° C | 74% | 1016 hPa | 0 mm | - | - | - |
| 1787495190 | 27.78° C | 75% | 1016 hPa | 0 mm | - | - | - |
| 1787494890 | 27.78° C | 75% | 1016 hPa | 0 mm | - | - | - |
| 1787494590 | 28.33° C | 74% | 1016 hPa | 0 mm | - | - | - |
| 1787494290 | 27.22° C | 77% | 1016.1 hPa | 0 mm | - | - | - |
| 1787493990 | 27.22° C | 77% | 1015.9 hPa | 0 mm | - | - | - |
| 1787493690 | 27.22° C | 78% | 1016.1 hPa | 0 mm | - | - | - |
| 1787493390 | 27.22° C | 77% | 1015.9 hPa | 0 mm | - | - | - |
| 1787493090 | 27.22° C | 78% | 1016.1 hPa | 0 mm | - | - | - |
| 1787492790 | 27.22° C | 78% | 1015.9 hPa | 0 mm | - | - | - |
* Rain latest hour (hover to see other rain measurements)
** Current wind speed in m/s (hover to see current wind gust speed)